Regional Weather Roundup
Issued by NWS Green Bay, WI

Home | Current Version | Previous Version | Graphics & Text | Print | Product List | Glossary Off
Versions: 1 2 3 4 5 6 7 8 9 10 11 12 13 14 15 16 17 18 19 20 21 22 23 24 25 26 27 28 29 30 31 32 33 34 35 36 37 38 39 40 41 42 43 44 45 46 47 48 49 50

000
ASUS43 KGRB 170700
RWRGRB

NORTH-CENTRAL AND NORTHEAST WISCONSIN REGIONAL WEATHER ROUNDUP
NATIONAL WEATHER SERVICE GREEN BAY WI
200 AM CDT TUE OCT 17 2017

WIZ005-009-010>012-018-019-170800-
NORTH CENTRAL WISCONSIN

CITY           SKY/WX    TMP DP  RH WIND       PRES   REMARKS
IRONWOOD       CLEAR     52  36  54 SW12      29.91R
MANITOWISH WTR NOT AVBL
ARBOR VITAE    NOT AVBL
EAGLE RIVER    NOT AVBL
LAND O LAKES   NOT AVBL
RHINELANDER    CLOUDY    48  36  63 SW12      29.97S
PHILLIPS       NOT AVBL
ANTIGO         NOT AVBL
TOMAHAWK       NOT AVBL
MERRILL        NOT AVBL
$$

WIZ013-073-170800-
NORTHEAST WISCONSIN

CITY           SKY/WX    TMP DP  RH WIND       PRES   REMARKS
IRON MOUNTAIN  CLOUDY    43  34  70 SE5       29.94F
MARINETTE      CLEAR     50  38  63 SW9       30.00F
$$

WIZ017-030-035>037-045-170800-
CENTRAL WISCONSIN

CITY           SKY/WX    TMP DP  RH WIND       PRES   REMARKS
MEDFORD        NOT AVBL
WAUSAU         CLOUDY    48  38  68 SW5       29.98F
MOSINEE        NOT AVBL
MARSHFIELD     CLOUDY    43  35  73 S8        30.00F
WISC RAPIDS    CLEAR     46  37  71 S6        30.03F
STEVENS POINT  NOT AVBL
WAUPACA        NOT AVBL
SHAWANO        NOT AVBL
CLINTONVILLE   NOT AVBL
WAUTOMA        CLEAR     38  36  92 CALM      30.06F
$$

WIZ038-039-048-051-170800-
FOX VALLEY

CITY           SKY/WX    TMP DP  RH WIND       PRES   REMARKS
NWS GREEN BAY  CLEAR     51  41  68 S8        30.04F
APPLETON       NOT AVBL
OSHKOSH        CLEAR     49  38  65 S14       30.06F
FOND DU LAC    CLEAR     51  36  56 SW12      30.09S
$$

WIZ022-050-052-170800-
EAST CENTRAL WISCONSIN

CITY           SKY/WX    TMP DP  RH WIND       PRES   REMARKS
EPHRAIM        NOT AVBL
WASHINGTON ISL NOT AVBL
STURGEON BAY   CLEAR     51  38  60 SW13      30.02F
MANITOWOC      CLEAR     51  37  58 SW10      30.07F
SHEBOYGAN      CLEAR     44  39  82 SW6       30.09F
$$

LMZ563-521-522-541>543-170800-
LAKESHORE

STATION/POSITION TIME  TEMP    WIND        PRES    VSBY  WAVE
                       AIR SEA DIR/SP/G                  HT/PER
                 (UTC) (F)     (DEG/KT/KT) (MB)    (MI)  (FT/S)
SHEBOYGAN LKSHOR 0600   50     200/ 10/ 11 1019.2F
KEWAUNEE LKSHORE 0630   51     210/  8/ 14 1017.0F
NORTHPORT PIER   0640   50     160/  3/  8 1015.6F
N MID LAKE BUOY  0550   59 60  220/ 23/ 29 1016.8F         5/ 6
S GREEN BAY BUOY 0630   56 58  210/ 19/ 23 1016.4F
SISTER BAY LKSHO 0604   55     220/ 12/ 16   N/A
MENOMINEE LKSHOR 0624   53     200/ 14/ 19 1015.8
$$




USA.gov is the U.S. government's official web portal to all federal, state and local government web resources and services.